This is the latest recevied weather packets stored in our database for station/object DL9LAF-4. If no packets are shown the sender has not sent any weather packets the latest 10 day(s).
| Time | Temp. | Humidity | Pressure | Rain* | Wind** | Luminosity | Snow |
|---|---|---|---|---|---|---|---|
| 1777724754 | 25° C | 32% | 993.4 hPa | 0 mm | - | - | - |
| 1777724154 | 25° C | 35% | 993.4 hPa | 0 mm | - | - | - |
| 1777723554 | 25° C | 33% | 993.5 hPa | 0 mm | - | - | - |
| 1777722954 | 24.44° C | 36% | 993.5 hPa | 0 mm | - | - | - |
| 1777722354 | 24.44° C | 37% | 993.7 hPa | 0 mm | - | - | - |
| 1777721754 | 23.89° C | 38% | 994 hPa | 0 mm | - | - | - |
| 1777721154 | 23.89° C | 41% | 994 hPa | 0 mm | - | - | - |
| 1777720554 | 23.33° C | 42% | 994 hPa | 0 mm | - | - | - |
| 1777719954 | 23.33° C | 43% | 994.2 hPa | 0 mm | - | - | - |
| 1777719354 | 22.78° C | 44% | 994.4 hPa | 0 mm | - | - | - |
| 1777718754 | 22.78° C | 45% | 994.5 hPa | 0 mm | - | - | - |
| 1777718154 | 22.22° C | 47% | 994.4 hPa | 0 mm | - | - | - |
| 1777717554 | 22.22° C | 46% | 994.5 hPa | 0 mm | - | - | - |
| 1777716954 | 21.67° C | 47% | 994.5 hPa | 0 mm | - | - | - |
| 1777716354 | 21.67° C | 49% | 994.7 hPa | 0 mm | - | - | - |
| 1777715754 | 21.11° C | 50% | 995 hPa | 0 mm | - | - | - |
| 1777715154 | 20.56° C | 51% | 995 hPa | 0 mm | - | - | - |
| 1777714554 | 20.56° C | 50% | 995 hPa | 0 mm | - | - | - |
| 1777713954 | 20° C | 52% | 995 hPa | 0 mm | - | - | - |
| 1777713354 | 19.44° C | 52% | 995.2 hPa | 0 mm | - | - | - |
| 1777712754 | 19.44° C | 52% | 995.5 hPa | 0 mm | - | - | - |
| 1777712154 | 18.89° C | 54% | 995.4 hPa | 0 mm | - | - | - |
| 1777711554 | 18.89° C | 55% | 995.5 hPa | 0 mm | - | - | - |
| 1777710954 | 18.89° C | 55% | 995.4 hPa | 0 mm | - | - | - |
| 1777710354 | 18.33° C | 57% | 995.5 hPa | 0 mm | - | - | - |
* Rain latest hour (hover to see other rain measurements)
** Current wind speed in m/s (hover to see current wind gust speed)